Location: Palomar Mountain Lodge
(33.3110°N, 116.8495°W)
Time: 14:53:52
(UTC-07:00)

Cosmos 2184 Rocket - Pass Details

Date: 19 May 2017
Orbit: 960 x 1001 km, 82.9° (Epoch: 24 May)

Event Time Altitude Azimuth Distance (km) Brightness Sun altitude
Rises 21:53:25 0° 353° (N) 3,723 7.9 -22.9°
Reaches altitude 10° 21:55:57 10° 354° (N) 2,767 7.1 -23.3°
Maximum altitude 22:02:19 89° 268° (W) 995 3.9 -24.2°
Enters shadow 22:04:23 46° 177° (S) 1,299 4.3 -24.5°
